IRIDIUM 33 DEB

Last updated on Wed Jun 28 2023 01:02:14 GMT+0100 (British Summer Time)

1 46983U 97051ACR 23178.21904268 .00282967 00000+0 97579-2 0 9997 2 46983 86.3531 356.1843 0007671 250.1509 109.8912 15.28773860579278

Satellite not in orbit